This demonstration page uses our WeatherBlox Daily Observations layout. Learn more.

Left ArrowRight Arrow

36.17497, -115.13722

Hourly Observations for July 7, 2017

Temp ( °F °C ) Dew Point ( °F °C ) Humidity (%) Winds ( mph kmh ) Pressure ( in mb ) Visibility ( mi km ) Precip ( " mm )
12:53 am 00:53 Clear 95 35 38 3.3 14 14 WNW 6 9 29.85 1011 10 16 N/A
1:53 am 01:53 Clear 94 34.4 36 2.2 13 13 NNW 10 17 29.84 1011 10 16 N/A
2:53 am 02:53 Clear 94 34.4 35 1.7 13 13 NNW 12 19 29.85 1011 10 16 N/A
3:53 am 03:53 Clear 95 35 35 1.7 12 12 N 13 20 29.84 1011 10 16 N/A
4:53 am 04:53 Clear 93 33.9 35 1.7 13 13 NNW 15 24 29.85 1011 10 16 N/A
5:53 am 05:53 Sunny 92 33.3 34 1.1 13 13 N 10 17 29.87 1012 10 16 N/A
6:53 am 06:53 Sunny 94 34.4 36 2.2 13 13 N 9 15 29.89 1012 10 16 N/A
7:53 am 07:53 Sunny 96 35.6 39 3.9 14 14 NW 5 7 29.92 1013 10 16 N/A
8:53 am 08:53 Sunny 103 39.4 36 2.2 10 10 NE 3 6 29.90 1013 10 16 N/A
9:53 am 09:53 Sunny 106 41.1 33 0.6 8 8 E 8 13 29.91 1013 10 16 N/A
10:53 am 10:53 Sunny 106 41.1 32 undefined 8 8 VRB 3 6 29.89 1012 10 16 N/A
11:53 am 11:53 Sunny 110 43.3 31 -0.6 6 6 E 9 15 29.88 1012 10 16 N/A
12:53 pm 12:53 Sunny 110 43.3 30 -1.1 6 6 ESE 6 9 29.85 1011 10 16 N/A
1:53 pm 13:53 Sunny 112 44.4 26 -3.3 5 5 SSE 10 17 29.83 1010 10 16 N/A
2:53 pm 14:53 Sunny 112 44.4 24 -4.4 5 5 VRB 5 7 29.80 1009 10 16 N/A
3:53 pm 15:53 Sunny 113 45 23 -5 4 4 N N/A 29.78 1008 10 16 N/A
4:53 pm 16:53 Sunny 113 45 23 -5 4 4 VRB 5 7 29.75 1008 10 16 N/A
5:31 pm 17:31 Sunny with Nearby Thunderstorms 113 45 24 -4.4 4 4 SSE 6 9 29.53 1000 10 16 N/A
5:46 pm 17:46 Sunny 112 44.4 23 -5 4 4 N N/A 29.53 1000 10 16 N/A
5:53 pm 17:53 Sunny 112 44.4 23 -5 4 4 N N/A 29.75 1007 10 16 N/A
6:53 pm 18:53 Sunny 112 44.4 24 -4.4 5 5 SE 5 7 29.74 1007 10 16 N/A
7:53 pm 19:53 Sunny 109 42.8 32 undefined 7 7 W 16 26 29.74 1007 10 16 N/A
8:53 pm 20:53 Clear 108 42.2 33 0.6 7 7 N N/A 29.76 1008 10 16 N/A
9:31 pm 21:31 Mostly Clear 108 42.2 31 -0.6 7 7 ENE 13 20 29.62 1003 9 14 N/A
9:41 pm 21:41 Partly Cloudy 108 42.2 32 undefined 7 7 SSE 18 30 29.62 1003 10 16 N/A
9:53 pm 21:53 Mostly Clear 108 42.2 31 -0.6 7 7 NE 3 6 29.78 1009 10 16 N/A
10:53 pm 22:53 Clear 104 40 36 2.2 9 9 E 6 9 29.80 1009 10 16 N/A
11:53 pm 23:53 Clear 102 38.9 37 2.8 10 10 NNE 8 13 29.80 1009 10 16 N/A

Powered by AerisWeather